千帆星座-37 (QIANFAN-37)

导读

QIANFAN-37 是中国自主研发的北斗卫星导航系统中的重要成员,主要用于提供高精度定位、导航和授时服务。该卫星采用先进技术和稳定平台,增强了系统的覆盖范围与可靠性,广泛应用于交通、农业、通信和应急救援等领域。QIANFAN-37 的成功发射进一步提升了北斗系统在全球范围内的竞争力,为中国及“一带一路”沿线国家的用户提供更优质的服务,推动了全球卫星导航技术的发展与合作。

基本信息
目录编号:
62238
目录名称:
QIANFAN-37
国际标识:
2024-232B
轨道中心:
EARTH
卫星名称:
千帆星座-37
卫星全名:
千帆星座-37 (QIANFAN-37)
卫星状态:
在轨 (已飞行645 天)
发射日期:
2024-12-05 UTC
国别 :
中国 (CN)
星等 :
--
该卫星已列入 空间交会检测服务 Space Conjunction Data Service (SCDS) ,当前飞行风险评估等级: 无高风险
轨道信息
数据来源 国际轨道数据 AOE轨道数据
星历时间 2026-09-11T05:03:48+0800
10小时前
查看轨道信息
2026-09-07T04:00:00+0800
4天前
查看轨道信息
半长轴 7446.613km 7446.614km
偏心率 0.0002194 0.000222
轨道倾角 89.015° 89.014°
近地点辐角 88.199° 90.455°
升交点赤经 13.997° 14.399°
平近点角 271.941° 51.057°
近地点 1066.842km 1066.823km
远地点 1070.11km 1070.131km
周期 106.585分钟 106.585分钟
每日圈数 13.51029 13.510285
详细信息
卫星平台:
37
覆盖范围:
全球
运营商:
上海垣信卫星科技有限公司
运营商所在国:
中国
使用方式:
暂无
卫星简介
千帆星座,也被称为“G60星链”计划,是中国版“星链”的重要组成部分,旨在打造一个由1.4万多颗低轨宽频多媒体卫星构成的庞大星座。千帆星座计划由上海垣信卫星科技有限公司负责实施,于2023年启动建设。该项目是我国第二个低轨卫星大星座,旨在通过构建庞大的卫星网络,为全球用户提供高质量的通信和宽带互联网服务。
2D轨道图
3D轨道图
轨道高度分析图
轨道倾角分析图
轨道综合分析图
查看轨道综合分析图
与全量物体交会距离演化趋势
与全量物体交会风险概率演化趋势